Meteo pe oră la Dzietrzychowice

Astăzi, 6 Martie, Sâmbătă

Timp Temperatura Precipitaţii Vânt Presiune Umiditate
00:00 -2°C° 0 mm 2 m/s 760 mmHg 66%
01:00 -2°C° 0 mm 2 m/s 760 mmHg 67%
02:00 -2°C° 0 mm 2 m/s 760 mmHg 68%
03:00 -2°C° 0 mm 2 m/s 760 mmHg 69%
04:00 -2°C° 0 mm 2 m/s 760 mmHg 70%
05:00 -2°C° 0 mm 2 m/s 760 mmHg 70%
06:00 -2°C° 0 mm 2 m/s 760 mmHg 70%
07:00 -3°C° 0 mm 2 m/s 760 mmHg 70%
08:00 -1°C° 0 mm 3 m/s 761 mmHg 64%
09:00 +1°C° 0 mm 3 m/s 761 mmHg 57%
10:00 +1°C° 0 mm 4 m/s 761 mmHg 50%
11:00 +3°C° 0 mm 4 m/s 760 mmHg 48%
12:00 +4°C° 0 mm 4 m/s 760 mmHg 46%
13:00 +3°C° 0 mm 5 m/s 760 mmHg 44%
14:00 +3°C° 0 mm 5 m/s 760 mmHg 45%
15:00 +3°C° 0 mm 5 m/s 759 mmHg 47%
16:00 +3°C° 0 mm 5 m/s 759 mmHg 49%
17:00 +3°C° 0 mm 4 m/s 759 mmHg 56%
18:00 +1°C° 0 mm 3 m/s 758 mmHg 64%
19:00 0°C° 0 mm 3 m/s 758 mmHg 71%
20:00 0°C° 0 mm 3 m/s 758 mmHg 75%
21:00 -1°C° 0 mm 3 m/s 758 mmHg 79%
22:00 -1°C° 0 mm 3 m/s 758 mmHg 83%
23:00 -1°C° 0 mm 3 m/s 758 mmHg 85%

Mâine, 7 Martie, Duminică

Timp Temperatura Precipitaţii Vânt Presiune Umiditate
00:00 -2°C° 0 mm 4 m/s 758 mmHg 86%
01:00 -2°C° 0 mm 4 m/s 758 mmHg 87%
02:00 -2°C° 0 mm 4 m/s 757 mmHg 89%
03:00 -2°C° 0 mm 4 m/s 757 mmHg 90%
04:00 -2°C° 0 mm 4 m/s 756 mmHg 91%
05:00 -2°C° 0 mm 4 m/s 756 mmHg 91%
06:00 -2°C° 0 mm 4 m/s 756 mmHg 91%
07:00 -2°C° 0 mm 4 m/s 756 mmHg 92%
08:00 -2°C° 0 mm 4 m/s 755 mmHg 85%
09:00 -1°C° 0 mm 5 m/s 755 mmHg 79%
10:00 -1°C° 0 mm 6 m/s 755 mmHg 72%
11:00 -1°C° 0 mm 6 m/s 754 mmHg 71%
12:00 -1°C° 0 mm 6 m/s 754 mmHg 69%
13:00 +1°C° 0 mm 6 m/s 754 mmHg 67%
14:00 0°C° 0 mm 5 m/s 753 mmHg 68%
15:00 0°C° 0 mm 5 m/s 753 mmHg 68%
16:00 0°C° 0 mm 5 m/s 752 mmHg 69%
17:00 0°C° 0 mm 4 m/s 752 mmHg 71%
18:00 0°C° 0 mm 3 m/s 752 mmHg 74%
19:00 -1°C° 0 mm 3 m/s 752 mmHg 76%
20:00 -1°C° 0 mm 3 m/s 752 mmHg 78%
21:00 -1°C° 0 mm 3 m/s 752 mmHg 80%
22:00 -2°C° 0 mm 3 m/s 752 mmHg 82%
23:00 -2°C° 0.1 mm 3 m/s 752 mmHg 86%

Poimâine, 8 Martie, Luni

Timp Temperatura Precipitaţii Vânt Presiune Umiditate
00:00 -3°C° 0.1 mm 4 m/s 752 mmHg 90%
01:00 -2°C° 0.1 mm 4 m/s 752 mmHg 94%
02:00 -2°C° 0.3 mm 4 m/s 752 mmHg 95%
03:00 -1°C° 0.3 mm 3 m/s 752 mmHg 96%
04:00 -1°C° 0.3 mm 3 m/s 751 mmHg 96%
05:00 -1°C° 0.3 mm 3 m/s 752 mmHg 96%
06:00 -1°C° 0.3 mm 2 m/s 752 mmHg 96%
07:00 -1°C° 0.3 mm 2 m/s 752 mmHg 96%
08:00 -1°C° 0.1 mm 2 m/s 753 mmHg 85%
09:00 +1°C° 0.1 mm 2 m/s 753 mmHg 74%
10:00 +2°C° 0.1 mm 2 m/s 753 mmHg 64%
11:00 +3°C° 0 mm 2 m/s 753 mmHg 57%
12:00 +4°C° 0 mm 2 m/s 753 mmHg 51%
13:00 +5°C° 0 mm 1 m/s 754 mmHg 44%
14:00 +5°C° 0 mm 1 m/s 753 mmHg 44%
15:00 +5°C° 0 mm 1 m/s 753 mmHg 44%
16:00 +5°C° 0 mm 1 m/s 753 mmHg 44%
17:00 +3°C° 0 mm 1 m/s 753 mmHg 50%
18:00 +2°C° 0 mm 1 m/s 753 mmHg 55%
19:00 -1°C° 0 mm 0 m/s 753 mmHg 61%
20:00 -1°C° 0 mm 0 m/s 754 mmHg 62%
21:00 0°C° 0 mm 1 m/s 754 mmHg 63%
22:00 0°C° 0 mm 1 m/s 754 mmHg 64%
23:00 0°C° 0 mm 1 m/s 754 mmHg 66%

9 Martie, Marţi

Timp Temperatura Precipitaţii Vânt Presiune Umiditate
00:00 0°C° 0 mm 1 m/s 754 mmHg 67%
01:00 0°C° 0 mm 1 m/s 753 mmHg 68%
02:00 0°C° 0 mm 1 m/s 753 mmHg 70%
03:00 0°C° 0 mm 1 m/s 753 mmHg 71%
04:00 0°C° 0 mm 1 m/s 753 mmHg 73%
05:00 0°C° 0 mm 1 m/s 752 mmHg 73%
06:00 0°C° 0 mm 1 m/s 752 mmHg 73%
07:00 0°C° 0 mm 1 m/s 752 mmHg 72%
08:00 -1°C° 0 mm 2 m/s 752 mmHg 67%
09:00 +2°C° 0 mm 2 m/s 752 mmHg 61%
10:00 +3°C° 0 mm 2 m/s 752 mmHg 55%
11:00 +4°C° 0 mm 2 m/s 752 mmHg 54%
12:00 +4°C° 0 mm 2 m/s 752 mmHg 54%
13:00 +5°C° 0 mm 2 m/s 752 mmHg 53%
14:00 +5°C° 0 mm 2 m/s 752 mmHg 59%
15:00 +5°C° 0 mm 2 m/s 751 mmHg 64%
16:00 +5°C° 0 mm 2 m/s 751 mmHg 70%
17:00 +4°C° 0 mm 2 m/s 751 mmHg 77%
18:00 +3°C° 0 mm 2 m/s 751 mmHg 85%
19:00 +3°C° 0 mm 1 m/s 751 mmHg 93%
20:00 +2°C° 0 mm 2 m/s 752 mmHg 94%
21:00 +1°C° 0 mm 2 m/s 752 mmHg 95%
22:00 +1°C° 0 mm 2 m/s 752 mmHg 96%
23:00 +1°C° 0 mm 2 m/s 752 mmHg 96%

10 Martie, Miercuri

Timp Temperatura Precipitaţii Vânt Presiune Umiditate
00:00 +2°C° 0 mm 2 m/s 752 mmHg 96%
01:00 +1°C° 0 mm 3 m/s 752 mmHg 96%
02:00 +1°C° 0 mm 3 m/s 752 mmHg 96%
03:00 +1°C° 0 mm 3 m/s 751 mmHg 96%
04:00 +2°C° 0 mm 3 m/s 751 mmHg 95%
05:00 +2°C° 0.1 mm 3 m/s 751 mmHg 95%
06:00 +2°C° 0.1 mm 3 m/s 752 mmHg 95%
07:00 +2°C° 0.1 mm 3 m/s 752 mmHg 94%
08:00 +2°C° 0 mm 3 m/s 752 mmHg 91%
09:00 +3°C° 0 mm 3 m/s 752 mmHg 89%
10:00 +3°C° 0 mm 3 m/s 752 mmHg 86%
11:00 +4°C° 0 mm 3 m/s 752 mmHg 81%
12:00 +5°C° 0 mm 3 m/s 752 mmHg 75%
13:00 +7°C° 0 mm 3 m/s 752 mmHg 70%
14:00 +8°C° 0 mm 3 m/s 751 mmHg 68%
15:00 +8°C° 0 mm 3 m/s 751 mmHg 65%
16:00 +8°C° 0 mm 3 m/s 751 mmHg 63%
17:00 +7°C° 0 mm 3 m/s 750 mmHg 68%
18:00 +5°C° 0 mm 3 m/s 750 mmHg 73%
19:00 +4°C° 0 mm 3 m/s 750 mmHg 79%
20:00 +4°C° 0 mm 3 m/s 750 mmHg 77%
21:00 +4°C° 0 mm 3 m/s 750 mmHg 74%
22:00 +4°C° 0 mm 4 m/s 749 mmHg 72%
23:00 +4°C° 0 mm 4 m/s 749 mmHg 72%

11 Martie, Joi

Timp Temperatura Precipitaţii Vânt Presiune Umiditate
00:00 +4°C° 0 mm 4 m/s 748 mmHg 72%
01:00 +4°C° 0 mm 4 m/s 747 mmHg 72%
02:00 +5°C° 0.1 mm 4 m/s 747 mmHg 75%
03:00 +5°C° 0.1 mm 5 m/s 746 mmHg 78%
04:00 +4°C° 0.1 mm 6 m/s 745 mmHg 80%
05:00 +4°C° 0.2 mm 6 m/s 745 mmHg 80%
06:00 +5°C° 0.2 mm 6 m/s 744 mmHg 80%
07:00 +5°C° 0.2 mm 6 m/s 744 mmHg 80%
08:00 +5°C° 0 mm 6 m/s 744 mmHg 76%
09:00 +6°C° 0 mm 7 m/s 744 mmHg 71%
10:00 +6°C° 0 mm 7 m/s 743 mmHg 66%
11:00 +8°C° 0 mm 7 m/s 743 mmHg 65%
12:00 +9°C° 0 mm 8 m/s 743 mmHg 64%
13:00 +10°C° 0 mm 8 m/s 743 mmHg 63%
14:00 +10°C° 0.2 mm 8 m/s 743 mmHg 66%
15:00 +9°C° 0.2 mm 7 m/s 743 mmHg 70%
16:00 +8°C° 0.2 mm 7 m/s 743 mmHg 73%
17:00 +7°C° 0.1 mm 6 m/s 744 mmHg 72%
18:00 +7°C° 0.1 mm 5 m/s 744 mmHg 72%
19:00 +6°C° 0.1 mm 4 m/s 744 mmHg 71%
20:00 +6°C° 0 mm 5 m/s 745 mmHg 72%
21:00 +5°C° 0 mm 5 m/s 745 mmHg 73%
22:00 +5°C° 0 mm 5 m/s 746 mmHg 74%
23:00 +5°C° 0.1 mm 5 m/s 746 mmHg 77%
Arată mai mult

Formular de consimțământ

Meteoprog și furnizorii noștri de servicii pot stoca și accesa date personale, precum cookies, identificatori de dispozitiv sau alte tehnologii similare pe dispozitivul dumneavoastră și procesa astfel de date pentru a personaliza conținutul și reclamele, dar și pentru a oferi caracteristici de social media și pentru a analiza traficul.

  • Stocarea și/sau accesarea informațiilor pe dispozitivul dumneavoastră

    Cookies, identificatori de dispozitiv sau alte informații pot fi stocate sau accesate pe dispozitiv în scopurile indicate mai sus.

  • Reclame și conținut personalizat, evaluarea reclamelor și a conținutului, informații despre audiențe și dezvoltarea produselor

    Reclamele și conținutul pot fi personalizate pe baza unui profil. Pot fi adăugate date suplimentare pentru a personaliza mai bine reclamele și conținutul. Performanța reclamelor și conținutului poate fi măsurată. Pot fi obținute informații despre utilizatorii care au văzut reclamele și conținutul. Aceste date pot fi utilizate pentru a dezvolta sau îmbunătăți experiența utilizatorilor, sistemele și software-ul.

Dând clic pe ‘Sunt de acord’, permiteți utilizarea cookie-urilor menționate, a identificatorilor de dispozitiv, balizelor web sau altor tehnologii similare. Setările pot fi modificate din browser-ul dispozitivului dumneavoastră.

În anumite scopuri, interesele legitime pot prima asupra consimțământului. Puteți citi mai multe informații în acest sens în Politica privind Confidențialitatea Datelor și Cookie.